Regional Weather Roundup
Issued by NWS Charleston, SC

Current Version | Previous Version | Graphics & Text | Print | Product List | Glossary On
Versions: 1 2 3 4 5 6 7 8 9 10 11 12 13 14 15 16 17 18 19 20 21 22 23 24 25 26 27 28 29 30 31 32 33 34 35 36 37 38 39 40 41 42 43 44 45 46 47 48 49 50
024 ASUS42 KCHS 141413 RWRCHS REGIONAL WEATHER ROUNDUP NATIONAL WEATHER SERVICE CHARLESTON SC 900 AM EST SUN FEB 14 2016 NOTE: "FAIR" INDICATES FEW OR NO CLOUDS BELOW 12,000 FEET WITH NO SIGNIFICANT WEATHER AND/OR OBSTRUCTIONS TO VISIBILITY. NOT ALL STATIONS ARE QUALITY CONTROLLED BY THE NATIONAL WEATHER SERVICE. USE DATA WITH CAUTION...ESPECIALLY DEWPOINT OBSERVATIONS. SCZ027-030-031-034>040-042>050-141500- ...SOUTHEAST SOUTH CAROLINA... CITY SKY/WX TMP DP RH WIND PRES REMARKS N CHARLESTON MOSUNNY 32 8 36 NE12 30.49R WCI 23 WATERFRONT PRK N/A 32 21 64 NE14 30.32R WCI 22 MOUNT PLEASANT FAIR 32 12 43 NE6 30.50R WCI 26 JOHNS ISLAND FAIR 32 14 47 NE15 30.48S WCI 22 PINOPOLIS N/A 28 10 47 E12 30.43R WCI 18 MONCKS CORNER FAIR 27 1 33 NE12G17 30.51S WCI 16 SUMMERVILLE FAIR 32 9 37 NE7 30.51R WCI 26 BEAUFORT MCAS SUNNY 33 8 35 NE12 30.46R WCI 24 BEAUFORT ARPT FAIR 34 14 44 NE18 30.45R WCI 23 HILTON HEAD IS NOT AVBL WALTERBORO SUNNY 32 10 40 E16 30.50R WCI 21 ALLENDALE FAIR 32 9 37 CALM 30.47R ...SOUTHERN MIDLANDS AND PEE DEE... CITY SKY/WX TMP DP RH WIND PRES REMARKS GEORGETOWN FAIR 28 7 40 NE12 30.53R WCI 18 KINGSTREE FAIR 27 3 36 E9 30.53S WCI 17 ORANGEBURG SUNNY 29 2 31 E9G17 30.50R WCI 20 BARNWELL FAIR 32 9 37 E17 30.48R WCI 21 AIKEN FAIR 28 3 34 NE9G17 30.50R WCI 20 MANNING FAIR 28 1 31 NE10G18 30.52S WCI 19 COLUMBIA CLOUDY 28 1 31 E13 30.50S WCI 17 SUMTER MOSUNNY 26 2 36 NE12 30.50R WCI 15 FLORENCE SUNNY 25 3 38 E15 30.55R WCI 13 MYRTLE BEACH SUNNY 27 3 36 NE14 30.55R WCI 15 N MYRTLE BEACH CLOUDY 26 3 37 NE15 30.54R WCI 14 $$ GAZ063-065-086>088-099>101-113>116-118-119-134>141-150-141500- ...SOUTHEAST GEORGIA... CITY SKY/WX TMP DP RH WIND PRES REMARKS SAVANNAH ARPT MOSUNNY 36 15 42 E12G21 30.44R WCI 28 HUNTER AAF SUNNY 36 19 51 NE15G21 30.41R WCI 26 FORT STEWART SUNNY 36 19 49 NE9G16 30.40R WCI 29 STATESBORO MOSUNNY 37 0 21 E6 30.44S WCI 32 SYLVANIA MOSUNNY 33 13 43 E9G17 30.45R WCI 26 CLAXTON FAIR 34 19 52 NE13 30.43R WCI 25 ...CSRA...CENTRAL AND FAR SOUTHEAST GEORGIA... CITY SKY/WX TMP DP RH WIND PRES REMARKS THOMSON MOSUNNY 31 9 38 E12 30.50R WCI 22 AUGUSTA-BUSH MOSUNNY 31 7 36 E13 30.49R WCI 21 AUGUSTA-DANIEL MOSUNNY 30 1 29 E10 30.48R WCI 21 SWAINSBORO FAIR 32 12 43 E8 30.44R WCI 25 VIDALIA SUNNY 36 19 51 E14G20 30.41S WCI 27 EASTMAN FAIR 36 19 51 E8 30.43R WCI 29 HAZLEHURST FAIR 37 22 55 E8 30.38S WCI 31 ALMA SUNNY 37 25 61 E6 30.38R WCI 32 WAYCROSS SUNNY 42 33 71 E12G18 30.38R JESUP FAIR 41 32 70 E12 30.39S BAXLEY FAIR 37 25 60 E10 30.39R WCI 30 BRUNSWICK PTSUNNY 45 39 81 NE12G22 30.39R SAINT SIMONS MOSUNNY 47 40 76 NE16G29 30.37R $$ SCZ027-028-034-036>038-045-046-048>050-GAZ119-141-141500- ...LAKE AND SUPPLEMENTAL COASTAL OBSERVATIONS... STATION/POSITION TIME TEMP WIND PRES WAVE SWELL AIR SEA DIR/SP/G HT/PER HT/PER/DIR (UTC) (F) (DEG/KT/KT) (MB) (FT/S) (FT/S/D) WINYAH BAY 1245 26 20/ 7 1032.0 LAKE MURRAY 1300 25 50/ 3/ 7 1031.8R ACE BASIN NERRS 1245 29 40/ 6 1031.0 FORT PULASKI 1300 35 49 50/ 17/ 21 1029.9F SAPELO ISLAND 1300 42 40/ 13 1028.0S $$ ANZ835-935-AMZ111-154-330-350-352-354-370-450-454-472-141500- ...C-MAN AND BUOY OBSERVATIONS... STATION/POSITION TIME TEMP WIND PRES WAVE SWELL AIR SEA DIR/SP/G HT/PER HT/PER/DIR (UTC) (F) (DEG/KT/KT) (MB) (FT/S) (FT/S/D) BUOY 41004 1350 41 66 50/ 21/ 25 1030.5R 6/ 6 BUOY 41008 1350 47 53 60/ 21/ 27 1028.1F 6/ 5 FOLLY BEACH CMAN 1300 31 40/ 18/ 21 1031.7R CAPERS NEARSHORE 1308 33 40/ 19/ 25 1031.5R FRIPP NEARSHORE 1300 38 50/ 23/ 25 1028.7F STATION/POSITION TIME TEMP WIND PRES WAVE SWELL AIR SEA DIR/SP/G HT/PER HT/PER/DIR (UTC) (F) (DEG/KT/KT) (MB) (FT/S) (FT/S/D) 5E ST. MARYS GA 1321 55 N/A 3/ 3 FRYING PAN BUOY 1300 36 62 20/ 17/ 25 1031.8R BUOY 41025 1350 29 72 360/ 23/ 31 1033.2R 6/ 7 CAPE LOOKOUT NC 1300 23 10/ 15/ 21 1033.6R BUOY 41002 1350 48 67 350/ 16/ 19 N/A 8/ 9 7/ 9 BUOY 41010 1320 61 72 1025.5R ST AUGUSTINE FL 1400 54 56 360/ 16/ 17 1027.3R $$

USA.gov is the U.S. government's official web portal to all federal, state and local government web resources and services.